Location: Newark
(45.4426°N, 12.3253°E)
Time: 01:28:05
(UTC+00:00)

OTV 5 (USA 277) - Pass Details

Date: 29 October 2019
Orbit: 310 x 324 km, 54.5° (Epoch: 17 October)

Event Time Altitude Azimuth Distance (km) Brightness Sun altitude
Rises 17:17:31 0° 213° (SSW) 2,048 ? -13.6°
Reaches altitude 10° 17:19:33 10° 203° (SSW) 1,224 ? -14.0°
Maximum altitude 17:22:02 32° 137° (SE) 576 ? -14.4°
Enters shadow 17:22:16 32° 125° (SE) 585 ? -14.4°
